| time (UTC) | temp F | wind direction | speed knots | gust knots | rain 1hr in | rain 24hr in | rain mn in | humidity % | barometer mb |
| 20260507233053 | 70 | 38 | 1.7 | 6.1 | 0.00 | 1.73 | 1.73 | 92 | 1016.4 |
| 20260507231601 | 70 | 92 | 1.7 | 6.1 | 0.00 | 1.73 | 1.73 | 92 | 1016.3 |
| 20260507230101 | 70 | 102 | 1.7 | 4.3 | 0.00 | 1.73 | 1.73 | 93 | 1016.0 |
| 20260507224556 | 70 | 0 | 1.7 | 5.2 | 0.06 | 1.73 | 1.73 | 92 | 1016.0 |
| 20260507223058 | 71 | 0 | 0.0 | 0.9 | 0.37 | 1.73 | 1.73 | 93 | 1016.0 |
| 20260507221551 | 71 | 90 | 0.9 | 3.5 | 0.98 | 1.73 | 1.73 | 93 | 1015.8 |
| 20260507220051 | 71 | 0 | 0.0 | 7.0 | 1.33 | 1.73 | 1.73 | 92 | 1015.6 |
| 20260507214558 | 70 | 54 | 4.3 | 7.8 | 1.29 | 1.66 | 1.66 | 93 | 1015.1 |
| 20260507213056 | 71 | 202 | 2.6 | 5.2 | 1.09 | 1.35 | 1.35 | 92 | 1015.6 |
| 20260507211553 | 71 | 210 | 0.0 | 4.3 | 0.71 | 0.74 | 0.74 | 92 | 1015.4 |
| 20260507210052 | 72 | 40 | 0.9 | 3.5 | 0.38 | 0.40 | 0.40 | 92 | 1015.3 |
| 20260507204554 | 72 | 167 | 1.7 | 6.1 | 0.37 | 0.37 | 0.37 | 91 | 1015.2 |
| 20260507203106 | 72 | 147 | 2.6 | 7.0 | 0.25 | 0.25 | 0.25 | 91 | 1015.2 |
| 20260507201553 | 74 | 294 | 3.5 | 6.1 | 0.03 | 0.03 | 0.03 | 89 | 1015.1 |
| 20260507200054 | 75 | 225 | 1.7 | 5.2 | 0.02 | 0.02 | 0.02 | 88 | 1015.3 |
| 20260507194552 | 75 | 155 | 1.7 | 5.2 | 0.00 | 0.00 | 0.00 | 86 | 1015.4 |
| 20260507193100 | 74 | 101 | 1.7 | 5.2 | 0.00 | 0.00 | 0.00 | 86 | 1015.5 |
| 20260507191554 | 74 | 141 | 1.7 | 5.2 | 0.00 | 0.00 | 0.00 | 87 | 1015.7 |
| 20260507190056 | 75 | 269 | 1.7 | 6.1 | 0.00 | 0.00 | 0.00 | 86 | 1015.8 |
| 20260507184609 | 76 | 103 | 0.9 | 6.1 | 0.00 | 0.00 | 0.00 | 83 | 1015.8 |
| 20260507183056 | 76 | 297 | 0.9 | 8.7 | 0.00 | 0.00 | 0.00 | 81 | 1015.9 |
| 20260507181553 | 78 | 160 | 0.9 | 6.1 | 0.00 | 0.00 | 0.00 | 79 | 1015.8 |
| 20260507180055 | 78 | 99 | 1.7 | 4.3 | 0.00 | 0.00 | 0.00 | 79 | 1016.0 |
| 20260507174605 | 78 | 46 | 1.7 | 6.1 | 0.00 | 0.00 | 0.00 | 77 | 1016.3 |
| 20260507173102 | 78 | 139 | 2.6 | 6.1 | 0.00 | 0.00 | 0.00 | 77 | 1016.4 |
| 20260507171611 | 78 | 22 | 1.7 | 7.0 | 0.00 | 0.00 | 0.00 | 77 | 1016.7 |
| 20260507170059 | 79 | 150 | 2.6 | 7.0 | 0.00 | 0.00 | 0.00 | 75 | 1016.9 |
| 20260507164610 | 78 | 193 | 3.5 | 7.0 | 0.00 | 0.00 | 0.00 | 74 | 1017.3 |
| 20260507163055 | 78 | 111 | 2.6 | 9.6 | 0.00 | 0.00 | 0.00 | 76 | 1017.5 |
| 20260507161603 | 79 | 122 | 3.5 | 8.7 | 0.00 | 0.00 | 0.00 | 73 | 1017.6 |
| 20260507160059 | 78 | 107 | 1.7 | 8.7 | 0.00 | 0.00 | 0.00 | 76 | 1017.8 |
| 20260507154556 | 77 | 57 | 1.7 | 6.1 | 0.00 | 0.00 | 0.00 | 76 | 1018.0 |
| 20260507153058 | 78 | 128 | 1.7 | 7.8 | 0.00 | 0.00 | 0.00 | 74 | 1018.0 |
| 20260507151547 | 79 | 44 | 0.9 | 7.8 | 0.00 | 0.00 | 0.00 | 73 | 1018.1 |
| 20260507150048 | 79 | 352 | 2.6 | 7.8 | 0.00 | 0.00 | 0.00 | 72 | 1018.0 |
| 20260507144549 | 79 | 134 | 1.7 | 7.8 | 0.00 | 0.00 | 0.00 | 75 | 1018.2 |
| 20260507143052 | 78 | 352 | 2.6 | 8.7 | 0.00 | 0.00 | 0.00 | 74 | 1018.2 |
| 20260507141558 | 78 | 140 | 3.5 | 7.8 | 0.00 | 0.00 | 0.00 | 75 | 1018.3 |
| 20260507140051 | 76 | 16 | 0.9 | 7.0 | 0.00 | 0.00 | 0.00 | 80 | 1018.4 |
| 20260507134554 | 75 | 360 | 1.7 | 7.0 | 0.00 | 0.00 | 0.00 | 80 | 1018.2 |
| 20260507133053 | 76 | 162 | 1.7 | 6.1 | 0.00 | 0.00 | 0.00 | 80 | 1018.1 |
| 20260507131553 | 75 | 136 | 2.6 | 7.8 | 0.00 | 0.00 | 0.00 | 81 | 1018.0 |
| 20260507130056 | 74 | 68 | 1.7 | 6.1 | 0.00 | 0.00 | 0.00 | 84 | 1018.0 |
| 20260507124555 | 74 | 38 | 2.6 | 7.8 | 0.00 | 0.00 | 0.00 | 84 | 1018.0 |
| 20260507123051 | 73 | 111 | 1.7 | 7.0 | 0.00 | 0.00 | 0.00 | 86 | 1017.8 |
| 20260507121553 | 73 | 91 | 1.7 | 8.7 | 0.00 | 0.00 | 0.00 | 87 | 1017.7 |
| 20260507120057 | 73 | 58 | 0.9 | 5.2 | 0.00 | 0.00 | 0.00 | 86 | 1017.3 |
| 20260507114553 | 72 | 82 | 1.7 | 7.0 | 0.00 | 0.00 | 0.00 | 88 | 1017.2 |
| 20260507113053 | 71 | 67 | 1.7 | 6.1 | 0.00 | 0.00 | 0.00 | 87 | 1017.2 |
| 20260507111558 | 71 | 44 | 0.9 | 4.3 | 0.00 | 0.00 | 0.00 | 89 | 1017.1 |
| 20260507110106 | 70 | 63 | 1.7 | 6.1 | 0.00 | 0.00 | 0.00 | 89 | 1017.0 |
| 20260507104554 | 70 | 60 | 2.6 | 7.0 | 0.00 | 0.00 | 0.00 | 91 | 1016.9 |
| 20260507103057 | 69 | 61 | 1.7 | 7.0 | 0.00 | 0.00 | 0.00 | 92 | 1016.6 |
| 20260507101550 | 68 | 106 | 1.7 | 6.1 | 0.00 | 0.00 | 0.00 | 92 | 1016.6 |
| 20260507100052 | 68 | 139 | 1.7 | 6.1 | 0.00 | 0.00 | 0.00 | 93 | 1016.4 |
| 20260507094607 | 68 | 0 | 0.0 | 1.7 | 0.00 | 0.00 | 0.00 | 93 | 1016.5 |
| 20260507093100 | 68 | 66 | 0.9 | 5.2 | 0.00 | 0.00 | 0.00 | 93 | 1016.5 |
| 20260507091631 | 68 | 29 | 1.7 | 5.2 | 0.00 | 0.00 | 0.00 | 93 | 1016.5 |
| 20260507084555 | 68 | 44 | 1.7 | 4.3 | 0.00 | 0.00 | 0.00 | 92 | 1016.5 |
| 20260507083053 | 69 | 0 | 1.7 | 4.3 | 0.00 | 0.00 | 0.00 | 92 | 1016.4 |
| 20260507081552 | 69 | 82 | 1.7 | 5.2 | 0.00 | 0.00 | 0.00 | 92 | 1016.2 |
| 20260507080055 | 69 | 86 | 1.7 | 4.3 | 0.00 | 0.00 | 0.00 | 92 | 1016.3 |
| 20260507074553 | 69 | 78 | 0.9 | 3.5 | 0.00 | 0.00 | 0.00 | 92 | 1016.3 |
| 20260507073054 | 69 | 0 | 0.0 | 3.5 | 0.00 | 0.00 | 0.00 | 92 | 1016.4 |
| 20260507071557 | 69 | 74 | 0.9 | 3.5 | 0.00 | 0.00 | 0.00 | 91 | 1016.5 |
| 20260507070104 | 69 | 40 | 1.7 | 7.0 | 0.00 | 0.00 | 0.00 | 91 | 1016.7 |
| 20260507064556 | 69 | 55 | 2.6 | 7.0 | 0.00 | 0.00 | 0.00 | 90 | 1016.7 |
| 20260507063057 | 69 | 57 | 0.9 | 4.3 | 0.00 | 0.00 | 0.00 | 90 | 1017.1 |
| 20260507061555 | 70 | 61 | 1.7 | 6.1 | 0.00 | 0.00 | 0.00 | 90 | 1017.2 |
| 20260507060104 | 70 | 67 | 2.6 | 6.1 | 0.00 | 0.00 | 0.00 | 90 | 1017.4 |
| 20260507054556 | 70 | 66 | 0.0 | 7.0 | 0.00 | 0.00 | 0.00 | 89 | 1017.4 |
| 20260507053054 | 70 | 45 | 1.7 | 6.1 | 0.00 | 0.00 | 0.00 | 89 | 1017.6 |
| 20260507051553 | 69 | 52 | 2.6 | 7.0 | 0.00 | 0.00 | 0.00 | 91 | 1017.9 |
| 20260507050100 | 69 | 57 | 2.6 | 6.1 | 0.00 | 0.00 | 0.00 | 91 | 1018.3 |
| 20260507044600 | 69 | 90 | 0.0 | 3.5 | 0.00 | 0.00 | 0.00 | 91 | 1018.5 |
| 20260507043058 | 68 | 62 | 0.9 | 4.3 | 0.00 | 0.00 | 0.00 | 92 | 1018.7 |
| 20260507041550 | 68 | 0 | 0.9 | 3.5 | 0.00 | 0.00 | 0.00 | 90 | 1018.7 |
| 20260507040101 | 68 | 231 | 0.0 | 1.7 | 0.00 | 0.00 | 0.00 | 91 | 1018.8 |
| 20260507034558 | 68 | 0 | 0.9 | 2.6 | 0.00 | 0.00 | 0.00 | 91 | 1018.9 |
| 20260507033051 | 68 | 0 | 0.0 | 2.6 | 0.00 | 0.00 | 0.00 | 91 | 1019.0 |
| 20260507031553 | 68 | 69 | 0.0 | 1.7 | 0.00 | 0.00 | 0.00 | 90 | 1019.1 |
| 20260507030053 | 68 | 0 | 0.0 | 2.6 | 0.00 | 0.00 | 0.00 | 89 | 1019.1 |
| 20260507024600 | 69 | 0 | 0.0 | 2.6 | 0.00 | 0.00 | 0.00 | 90 | 1019.3 |
| 20260507023054 | 69 | 36 | 0.9 | 2.6 | 0.00 | 0.00 | 0.00 | 90 | 1019.1 |
| 20260507021551 | 69 | 0 | 0.0 | 2.6 | 0.00 | 0.00 | 0.00 | 91 | 1019.0 |
| 20260507020057 | 68 | 0 | 0.0 | 1.7 | 0.00 | 0.00 | 0.00 | 90 | 1019.1 |
| 20260507014552 | 68 | 34 | 0.0 | 0.9 | 0.00 | 0.00 | 0.00 | 89 | 1019.0 |
| 20260507013050 | 69 | 0 | 0.0 | 2.6 | 0.00 | 0.00 | 0.00 | 89 | 1018.9 |
| 20260507011549 | 69 | 327 | 0.0 | 1.7 | 0.00 | 0.00 | 0.00 | 89 | 1018.9 |
| 20260507010110 | 69 | 0 | 0.0 | 0.9 | 0.00 | 0.00 | 0.00 | 88 | 1018.7 |
| 20260507004556 | 69 | 0 | 0.0 | 0.9 | 0.00 | 0.00 | 0.00 | 88 | 1018.6 |
| 20260507003057 | 70 | 0 | 0.0 | 0.9 | 0.00 | 0.00 | 0.00 | 87 | 1018.3 |
| 20260507001557 | 70 | 0 | 0.0 | 2.6 | 0.00 | 0.00 | 0.00 | 86 | 1018.3 |
| 20260507000101 | 70 | 0 | 0.0 | 6.1 | 0.00 | 0.00 | 0.00 | 86 | 1018.0 |
| 20260506234602 | 71 | 200 | 0.0 | 1.7 | 0.00 | 0.00 | 0.00 | 85 | 1018.0 |